When you browse on this site, cookies collect data to enhance your experience and personalize the content and advertising you see.
Visit our Privacy Policy to learn more. By continuing to use the site, you agree to this use of cookies and data.
  • en France
  • Liste des pays
  • À 7 jours
  • Température de l'eau
  • Carte météo
  • Widgets météo
  • user-avatar
    Se connecter

    Météo par heure à Abomey

    Ce jour, 18 Janvier, Samedi

    Heure Température Précipitation Vent Pression Humidité
    00:00 +25°C° 0 mm 1 m/s 740 mmHg 91%
    01:00 +25°C° 0 mm 1 m/s 739 mmHg 92%
    02:00 +23°C° 0 mm 0 m/s 739 mmHg 93%
    03:00 +23°C° 0 mm 0 m/s 739 mmHg 94%
    04:00 +22°C° 0 mm 0 m/s 739 mmHg 94%
    05:00 +22°C° 0 mm 0 m/s 739 mmHg 94%
    06:00 +22°C° 0 mm 0 m/s 739 mmHg 94%
    07:00 +25°C° 0 mm 0 m/s 740 mmHg 81%
    08:00 +29°C° 0 mm 1 m/s 741 mmHg 68%
    09:00 +32°C° 0 mm 1 m/s 741 mmHg 55%
    10:00 +34°C° 0 mm 1 m/s 741 mmHg 45%
    11:00 +36°C° 0 mm 1 m/s 740 mmHg 35%
    12:00 +39°C° 0 mm 1 m/s 740 mmHg 25%
    13:00 +40°C° 0 mm 1 m/s 739 mmHg 23%
    14:00 +40°C° 0 mm 1 m/s 738 mmHg 20%
    15:00 +41°C° 0 mm 1 m/s 737 mmHg 18%
    16:00 +39°C° 0 mm 2 m/s 737 mmHg 21%
    17:00 +37°C° 0 mm 2 m/s 737 mmHg 25%
    18:00 +35°C° 0 mm 2 m/s 737 mmHg 28%
    19:00 +32°C° 0 mm 2 m/s 738 mmHg 42%
    20:00 +29°C° 0 mm 2 m/s 738 mmHg 57%
    21:00 +27°C° 0 mm 2 m/s 739 mmHg 71%
    22:00 +27°C° 0 mm 2 m/s 739 mmHg 74%
    23:00 +27°C° 0 mm 2 m/s 739 mmHg 77%

    Demain, 19 Janvier, Dimanche

    Heure Température Précipitation Vent Pression Humidité
    00:00 +26°C° 0 mm 2 m/s 739 mmHg 80%
    01:00 +26°C° 0 mm 2 m/s 739 mmHg 82%
    02:00 +25°C° 0 mm 1 m/s 738 mmHg 84%
    03:00 +25°C° 0 mm 1 m/s 738 mmHg 87%
    04:00 +22°C° 0 mm 0 m/s 738 mmHg 87%
    05:00 +22°C° 0 mm 0 m/s 738 mmHg 88%
    06:00 +22°C° 0 mm 0 m/s 739 mmHg 88%
    07:00 +25°C° 0 mm 0 m/s 739 mmHg 76%
    08:00 +27°C° 0 mm 0 m/s 740 mmHg 64%
    09:00 +32°C° 0 mm 1 m/s 740 mmHg 52%
    10:00 +33°C° 0 mm 0 m/s 740 mmHg 42%
    11:00 +35°C° 0 mm 0 m/s 740 mmHg 33%
    12:00 +38°C° 0 mm 0 m/s 739 mmHg 24%
    13:00 +41°C° 0 mm 1 m/s 738 mmHg 23%
    14:00 +41°C° 0 mm 1 m/s 737 mmHg 21%
    15:00 +40°C° 0 mm 1 m/s 736 mmHg 20%
    16:00 +38°C° 0 mm 2 m/s 736 mmHg 26%
    17:00 +36°C° 0 mm 2 m/s 736 mmHg 32%
    18:00 +34°C° 0 mm 3 m/s 736 mmHg 38%
    19:00 +31°C° 0 mm 3 m/s 737 mmHg 49%
    20:00 +30°C° 0 mm 3 m/s 737 mmHg 60%
    21:00 +28°C° 0 mm 3 m/s 738 mmHg 71%
    22:00 +28°C° 0 mm 3 m/s 738 mmHg 74%
    23:00 +27°C° 0 mm 2 m/s 738 mmHg 78%

    Après-demain, 20 Janvier, Lundi

    Heure Température Précipitation Vent Pression Humidité
    00:00 +27°C° 0 mm 2 m/s 738 mmHg 81%
    01:00 +26°C° 0 mm 2 m/s 737 mmHg 83%
    02:00 +26°C° 0 mm 2 m/s 737 mmHg 84%
    03:00 +26°C° 0 mm 3 m/s 737 mmHg 86%
    04:00 +25°C° 0 mm 2 m/s 737 mmHg 88%
    05:00 +25°C° 0 mm 1 m/s 738 mmHg 91%
    06:00 +22°C° 0 mm 0 m/s 738 mmHg 93%
    07:00 +26°C° 0 mm 1 m/s 739 mmHg 82%
    08:00 +29°C° 0 mm 1 m/s 739 mmHg 71%
    09:00 +31°C° 0 mm 2 m/s 740 mmHg 61%
    10:00 +34°C° 0 mm 2 m/s 739 mmHg 51%
    11:00 +36°C° 0 mm 2 m/s 739 mmHg 42%
    12:00 +38°C° 0 mm 2 m/s 738 mmHg 33%
    13:00 +38°C° 0 mm 2 m/s 738 mmHg 31%
    14:00 +39°C° 0 mm 2 m/s 737 mmHg 29%
    15:00 +39°C° 0 mm 3 m/s 736 mmHg 28%
    16:00 +37°C° 0 mm 3 m/s 736 mmHg 37%
    17:00 +34°C° 0 mm 4 m/s 736 mmHg 46%
    18:00 +32°C° 0 mm 5 m/s 736 mmHg 55%
    19:00 +30°C° 0 mm 4 m/s 737 mmHg 61%
    20:00 +29°C° 0 mm 4 m/s 738 mmHg 67%
    21:00 +28°C° 0 mm 3 m/s 738 mmHg 74%
    22:00 +27°C° 0 mm 3 m/s 738 mmHg 76%
    23:00 +27°C° 0 mm 3 m/s 738 mmHg 79%

    21 Janvier, Mardi

    Heure Température Précipitation Vent Pression Humidité
    00:00 +26°C° 0 mm 2 m/s 738 mmHg 81%
    01:00 +26°C° 0 mm 2 m/s 738 mmHg 83%
    02:00 +26°C° 0 mm 2 m/s 737 mmHg 84%
    03:00 +26°C° 0 mm 2 m/s 737 mmHg 85%
    04:00 +25°C° 0 mm 1 m/s 737 mmHg 87%
    05:00 +25°C° 0 mm 1 m/s 738 mmHg 89%
    06:00 +23°C° 0 mm 0 m/s 738 mmHg 91%
    07:00 +27°C° 0 mm 1 m/s 739 mmHg 81%
    08:00 +29°C° 0 mm 2 m/s 740 mmHg 71%
    09:00 +31°C° 0 mm 3 m/s 740 mmHg 61%
    10:00 +35°C° 0 mm 2 m/s 740 mmHg 51%
    11:00 +37°C° 0 mm 1 m/s 740 mmHg 42%
    12:00 +40°C° 0 mm 1 m/s 739 mmHg 32%
    13:00 +40°C° 0 mm 1 m/s 738 mmHg 33%
    14:00 +39°C° 0 mm 2 m/s 738 mmHg 33%
    15:00 +38°C° 0 mm 2 m/s 737 mmHg 34%
    16:00 +36°C° 0.1 mm 3 m/s 737 mmHg 41%
    17:00 +34°C° 0.1 mm 3 m/s 737 mmHg 48%
    18:00 +33°C° 0.1 mm 4 m/s 737 mmHg 55%
    19:00 +32°C° 0.1 mm 4 m/s 738 mmHg 61%
    20:00 +29°C° 0.1 mm 4 m/s 738 mmHg 68%
    21:00 +28°C° 0.1 mm 4 m/s 739 mmHg 75%
    22:00 +27°C° 0 mm 3 m/s 738 mmHg 77%
    23:00 +27°C° 0 mm 3 m/s 738 mmHg 79%

    22 Janvier, Mercredi

    Heure Température Précipitation Vent Pression Humidité
    00:00 +27°C° 0 mm 2 m/s 738 mmHg 82%
    01:00 +26°C° 0 mm 2 m/s 738 mmHg 84%
    02:00 +26°C° 0 mm 1 m/s 737 mmHg 86%
    03:00 +25°C° 0 mm 1 m/s 737 mmHg 89%
    04:00 +25°C° 0 mm 1 m/s 738 mmHg 90%
    05:00 +25°C° 0 mm 1 m/s 738 mmHg 92%
    06:00 +23°C° 0 mm 0 m/s 738 mmHg 93%
    07:00 +27°C° 0 mm 1 m/s 739 mmHg 83%
    08:00 +29°C° 0 mm 1 m/s 740 mmHg 72%
    09:00 +31°C° 0 mm 2 m/s 740 mmHg 61%
    10:00 +34°C° 0 mm 1 m/s 740 mmHg 51%
    11:00 +37°C° 0 mm 1 m/s 739 mmHg 40%
    12:00 +38°C° 0 mm 0 m/s 739 mmHg 29%
    13:00 +41°C° 0 mm 1 m/s 738 mmHg 28%
    14:00 +40°C° 0 mm 1 m/s 737 mmHg 26%
    15:00 +40°C° 0 mm 2 m/s 736 mmHg 24%
    16:00 +38°C° 0 mm 3 m/s 736 mmHg 32%
    17:00 +36°C° 0 mm 3 m/s 736 mmHg 40%
    18:00 +34°C° 0 mm 4 m/s 736 mmHg 48%
    19:00 +32°C° 0 mm 4 m/s 737 mmHg 57%
    20:00 +30°C° 0 mm 3 m/s 737 mmHg 67%
    21:00 +28°C° 0 mm 3 m/s 738 mmHg 77%
    22:00 +27°C° 0 mm 2 m/s 738 mmHg 79%
    23:00 +27°C° 0 mm 2 m/s 738 mmHg 81%

    23 Janvier, Jeudi

    Heure Température Précipitation Vent Pression Humidité
    00:00 +27°C° 0 mm 2 m/s 738 mmHg 84%
    01:00 +26°C° 0 mm 1 m/s 738 mmHg 86%
    02:00 +26°C° 0 mm 1 m/s 737 mmHg 89%
    03:00 +25°C° 0 mm 1 m/s 737 mmHg 91%
    04:00 +25°C° 0 mm 1 m/s 737 mmHg 91%
    05:00 +23°C° 0 mm 0 m/s 738 mmHg 91%
    06:00 +24°C° 0 mm 0 m/s 738 mmHg 90%
    07:00 +25°C° 0 mm 0 m/s 739 mmHg 83%
    08:00 +26°C° 0 mm 0 m/s 739 mmHg 75%
    09:00 +30°C° 0 mm 1 m/s 740 mmHg 68%
    10:00 +32°C° 0 mm 1 m/s 739 mmHg 58%
    11:00 +34°C° 0 mm 1 m/s 739 mmHg 48%
    12:00 +36°C° 0 mm 1 m/s 738 mmHg 38%
    13:00 +38°C° 0 mm 2 m/s 738 mmHg 34%
    14:00 +38°C° 0 mm 2 m/s 737 mmHg 30%
    15:00 +39°C° 0 mm 2 m/s 736 mmHg 26%
    16:00 +38°C° 0 mm 2 m/s 736 mmHg 29%
    17:00 +36°C° 0 mm 2 m/s 736 mmHg 32%
    18:00 +35°C° 0 mm 2 m/s 736 mmHg 35%
    19:00 +32°C° 0 mm 2 m/s 736 mmHg 49%
    20:00 +30°C° 0 mm 2 m/s 737 mmHg 62%
    21:00 +27°C° 0 mm 3 m/s 737 mmHg 76%
    22:00 +27°C° 0 mm 2 m/s 737 mmHg 79%
    23:00 +26°C° 0 mm 2 m/s 737 mmHg 83%
    Voir plus